Flag for U.S.A. Weather past 2 weeks in Flagstaff, Arizona, U.S.A.

Now
33 °F

Partly sunny.


Feels Like: 30 °F
Forecast: 16 / 43 °F
Wind: 3 mph from East

Location: Flagstaff Pulliam Airport

Current Time: Dec 18, 2014 at 5:05:32 PM

Latest Report: Dec 18, 2014 at 3:57 PM


Visibility: 10 mi

Pressure: 30.07 "Hg

Humidity: 82%

Dew point: 28 °F

Location of FlagstaffLocation

Historic Weather in Flagstaff — Graph

°F

Flagstaff temperature yesterday

Maximum temperature yesterday: 34 °F (at 3:57 PM)
Minimum temperature yesterday: 30 °F (at 2:57 AM)
Average temperature yesterday: 31 °F

Past Weeks' High & Low Weather Summary

 TemperatureHumidityPressure
High53 °F (Dec 11, 12:57 PM)97% (Dec 3, 10:03 PM)30.36 "Hg (Dec 3, 10:03 PM)
Low19 °F (Dec 15, 4:57 AM)41% (Dec 14, 1:57 PM)29.84 "Hg (Dec 13, 3:57 AM)
Average35 °F83%30.11 "Hg
* Reported Dec 3 3:57 PM — Dec 18 3:57 PM, Flagstaff, Weather by CustomWeather, © 2014

Note: Actual official high and low records may vary slightly from our data, if they occured in-between our weather recording intervals... More about our weather records

Advertising

Flagstaff weather history for previous 24 hours

 ConditionsComfort  
Time TempWeatherWind HumidityBarometerVisibility
3:57 PM
Dec 18
33 °FPartly sunny.3 mph82%30.07 "Hg10 mi
2:57 PM32 °FScattered clouds.3 mph85%30.07 "Hg10 mi
1:57 PM32 °FLight snow. Ice fog.7 mph88%30.07 "Hg2 mi
12:57 PM33 °FLight snow. Fog.8 mph85%30.07 "Hg1 mi
11:57 AM32 °FLight snow. Ice fog.No wind88%30.10 "Hg1 mi
10:57 AM31 °FLight snow. Ice fog.No wind92%30.12 "Hg1 mi
9:57 AM29 °FLight snow. Ice fog.No wind93%30.12 "Hg1 mi
8:57 AM29 °FSnow. Ice fog.5 mph93%30.10 "Hg1 mi
7:57 AM29 °FLight snow. Ice fog.3 mph93%30.09 "Hg1 mi
7:00 AM29 °FLight snow. Ice fog.5 mph93%30.09 "Hg1 mi
5:57 AM29 °FLow clouds.3 mph93%30.06 "Hg10 mi
4:57 AM29 °FMostly cloudy.No wind93%30.04 "Hg10 mi
3:57 AM30 °FMostly cloudy.No wind89%30.04 "Hg10 mi
2:57 AM30 °FLight snow. Ice fog.6 mph89%30.06 "Hg2 mi
2:04 AM30 °FLight snow. Ice fog.No wind92%30.09 "Hg2 mi
1:57 AM30 °FLight snow. Ice fog.No wind92%30.06 "Hg2 mi
12:57 AM30 °FLow clouds.3 mph92%30.05 "Hg10 mi
12:04 AM30 °FLight snow. Ice fog.8 mph92%30.09 "Hg2 mi
10:57 PM
Dec 17
31 °FMostly cloudy.No wind92%30.08 "Hg10 mi
9:57 PM31 °FMostly cloudy.No wind92%30.07 "Hg10 mi
8:57 PM31 °FMostly cloudy.3 mph92%30.06 "Hg9 mi
7:57 PM31 °FLight snow. Ice fog.3 mph92%30.05 "Hg4 mi
6:57 PM31 °FLight snow. Ice fog.5 mph92%30.03 "Hg5 mi
5:57 PM31 °FMostly cloudy.5 mph92%30.02 "Hg10 mi
Weather by CustomWeather, © 2014

See weather overviewHow to use our weather pages